When you browse on this site, cookies collect data to enhance your experience and personalize the content and advertising you see.
Visit our Privacy Policy to learn more. By continuing to use the site, you agree to this use of cookies and data.

Hourly Weather Nagpur

Today, 25 September, Friday

Time Temperature Precipitation Wind Pressure Humidity
00:00 +27°C° 0 mm 1 mps 728 mmHg 86%
01:00 +27°C° 0 mm 1 mps 728 mmHg 87%
02:00 +27°C° 0 mm 1 mps 728 mmHg 88%
03:00 +26°C° 0 mm 1 mps 728 mmHg 88%
04:00 +26°C° 0 mm 1 mps 727 mmHg 88%
05:00 +26°C° 0 mm 1 mps 728 mmHg 88%
06:00 +27°C° 0 mm 2 mps 728 mmHg 85%
07:00 +28°C° 0 mm 2 mps 729 mmHg 83%
08:00 +29°C° 0 mm 2 mps 729 mmHg 80%
09:00 +30°C° 0.1 mm 2 mps 729 mmHg 75%
10:00 +32°C° 0.1 mm 2 mps 728 mmHg 70%
11:00 +34°C° 0 mm 2 mps 728 mmHg 64%
12:00 +34°C° 0.2 mm 2 mps 728 mmHg 63%
13:00 +34°C° 0.2 mm 2 mps 727 mmHg 62%
14:00 +35°C° 0.2 mm 2 mps 727 mmHg 61%
15:00 +34°C° 0 mm 2 mps 727 mmHg 65%
16:00 +32°C° 0 mm 2 mps 726 mmHg 68%
17:00 +31°C° 0 mm 2 mps 726 mmHg 72%
18:00 +30°C° 0 mm 2 mps 727 mmHg 74%
19:00 +29°C° 0 mm 2 mps 727 mmHg 76%
20:00 +28°C° 0 mm 2 mps 728 mmHg 78%
21:00 +28°C° 0 mm 2 mps 728 mmHg 79%
22:00 +28°C° 0 mm 2 mps 728 mmHg 80%
23:00 +27°C° 0 mm 1 mps 728 mmHg 82%

Tomorrow, 26 September, Saturday

Time Temperature Precipitation Wind Pressure Humidity
00:00 +27°C° 0 mm 1 mps 727 mmHg 82%
01:00 +27°C° 0 mm 1 mps 727 mmHg 83%
02:00 +27°C° 0 mm 1 mps 727 mmHg 84%
03:00 +26°C° 0 mm 1 mps 727 mmHg 84%
04:00 +26°C° 0 mm 1 mps 727 mmHg 84%
05:00 +26°C° 0 mm 1 mps 726 mmHg 85%
06:00 +27°C° 0 mm 1 mps 727 mmHg 82%
07:00 +28°C° 0 mm 1 mps 728 mmHg 79%
08:00 +30°C° 0 mm 1 mps 728 mmHg 76%
09:00 +31°C° 0.2 mm 1 mps 728 mmHg 70%
10:00 +30°C° 0.2 mm 0 mps 728 mmHg 63%
11:00 +32°C° 0.2 mm 0 mps 728 mmHg 57%
12:00 +32°C° 0 mm 0 mps 727 mmHg 54%
13:00 +32°C° 0 mm 0 mps 727 mmHg 52%
14:00 +34°C° 0 mm 1 mps 726 mmHg 49%
15:00 +31°C° 0 mm 0 mps 726 mmHg 54%
16:00 +30°C° 0 mm 0 mps 726 mmHg 60%
17:00 +29°C° 0 mm 0 mps 726 mmHg 65%
18:00 +30°C° 0 mm 1 mps 726 mmHg 64%
19:00 +30°C° 0 mm 1 mps 727 mmHg 64%
20:00 +29°C° 0 mm 1 mps 728 mmHg 63%
21:00 +28°C° 0.1 mm 1 mps 728 mmHg 67%
22:00 +28°C° 0.1 mm 1 mps 728 mmHg 71%
23:00 +27°C° 0.1 mm 1 mps 728 mmHg 75%

Day after tomorrow, 27 September, Sunday

Time Temperature Precipitation Wind Pressure Humidity
00:00 +27°C° 0.1 mm 1 mps 727 mmHg 76%
01:00 +27°C° 0.1 mm 1 mps 727 mmHg 78%
02:00 +26°C° 0.1 mm 1 mps 727 mmHg 80%
03:00 +26°C° 0.3 mm 1 mps 727 mmHg 81%
04:00 +26°C° 0.3 mm 1 mps 727 mmHg 82%
05:00 +26°C° 0.3 mm 1 mps 727 mmHg 83%
06:00 +27°C° 0.1 mm 1 mps 728 mmHg 80%
07:00 +28°C° 0.1 mm 1 mps 729 mmHg 78%
08:00 +29°C° 0.1 mm 2 mps 730 mmHg 75%
09:00 +30°C° 1 mm 1 mps 729 mmHg 70%
10:00 +31°C° 1 mm 1 mps 729 mmHg 65%
11:00 +33°C° 1 mm 1 mps 729 mmHg 60%
12:00 +33°C° 0.3 mm 1 mps 729 mmHg 59%
13:00 +33°C° 0.3 mm 1 mps 728 mmHg 57%
14:00 +33°C° 0.3 mm 1 mps 727 mmHg 56%
15:00 +32°C° 0.2 mm 1 mps 727 mmHg 62%
16:00 +30°C° 0.2 mm 2 mps 727 mmHg 68%
17:00 +29°C° 0.2 mm 2 mps 727 mmHg 75%
18:00 +28°C° 0 mm 2 mps 727 mmHg 75%
19:00 +28°C° 0 mm 2 mps 728 mmHg 76%
20:00 +27°C° 0 mm 1 mps 728 mmHg 77%
21:00 +27°C° 0 mm 1 mps 729 mmHg 78%
22:00 +27°C° 0 mm 1 mps 729 mmHg 79%
23:00 +26°C° 0 mm 1 mps 729 mmHg 80%

28 September, Monday

Time Temperature Precipitation Wind Pressure Humidity
00:00 +26°C° 0 mm 1 mps 728 mmHg 80%
01:00 +26°C° 0 mm 1 mps 728 mmHg 81%
02:00 +26°C° 0 mm 1 mps 728 mmHg 82%
03:00 +26°C° 0 mm 1 mps 728 mmHg 82%
04:00 +26°C° 0 mm 1 mps 728 mmHg 82%
05:00 +25°C° 0 mm 1 mps 728 mmHg 82%
06:00 +27°C° 0 mm 1 mps 729 mmHg 79%
07:00 +28°C° 0 mm 1 mps 729 mmHg 76%
08:00 +29°C° 0 mm 1 mps 730 mmHg 73%
09:00 +30°C° 0 mm 1 mps 730 mmHg 68%
10:00 +31°C° 0 mm 1 mps 730 mmHg 63%
11:00 +32°C° 0 mm 1 mps 730 mmHg 58%
12:00 +33°C° 0 mm 1 mps 729 mmHg 56%
13:00 +33°C° 0 mm 1 mps 728 mmHg 54%
14:00 +34°C° 0 mm 1 mps 728 mmHg 52%
15:00 +33°C° 0 mm 1 mps 727 mmHg 57%
16:00 +32°C° 0 mm 1 mps 727 mmHg 61%
17:00 +31°C° 0 mm 1 mps 727 mmHg 66%
18:00 +30°C° 0.1 mm 1 mps 728 mmHg 70%
19:00 +29°C° 0.1 mm 1 mps 728 mmHg 73%
20:00 +28°C° 0.1 mm 2 mps 729 mmHg 76%
21:00 +27°C° 0 mm 2 mps 729 mmHg 78%
22:00 +27°C° 0 mm 1 mps 729 mmHg 79%
23:00 +26°C° 0 mm 1 mps 729 mmHg 80%

29 September, Tuesday

Time Temperature Precipitation Wind Pressure Humidity
00:00 +26°C° 0 mm 1 mps 728 mmHg 80%
01:00 +26°C° 0 mm 1 mps 728 mmHg 81%
02:00 +26°C° 0 mm 1 mps 728 mmHg 81%
03:00 +26°C° 0 mm 1 mps 728 mmHg 81%
04:00 +25°C° 0 mm 1 mps 728 mmHg 81%
05:00 +25°C° 0 mm 1 mps 728 mmHg 82%
06:00 +26°C° 0 mm 2 mps 728 mmHg 79%
07:00 +28°C° 0 mm 2 mps 729 mmHg 76%
08:00 +29°C° 0 mm 2 mps 730 mmHg 73%
09:00 +30°C° 0.1 mm 1 mps 729 mmHg 69%
10:00 +31°C° 0.1 mm 1 mps 729 mmHg 64%
11:00 +33°C° 0.1 mm 1 mps 729 mmHg 60%
12:00 +33°C° 0.2 mm 1 mps 728 mmHg 58%
13:00 +33°C° 0.2 mm 1 mps 728 mmHg 57%
14:00 +35°C° 0.2 mm 2 mps 727 mmHg 55%
15:00 +34°C° 0.1 mm 2 mps 727 mmHg 60%
16:00 +32°C° 0.1 mm 2 mps 727 mmHg 65%
17:00 +31°C° 0.1 mm 2 mps 727 mmHg 69%
18:00 +30°C° 0.1 mm 2 mps 727 mmHg 73%
19:00 +28°C° 0.1 mm 2 mps 728 mmHg 77%
20:00 +27°C° 0.1 mm 2 mps 728 mmHg 81%
21:00 +27°C° 0 mm 2 mps 728 mmHg 81%
22:00 +26°C° 0 mm 2 mps 728 mmHg 82%
23:00 +26°C° 0 mm 2 mps 728 mmHg 82%

30 September, Wednesday

Time Temperature Precipitation Wind Pressure Humidity
00:00 +26°C° 0 mm 2 mps 728 mmHg 82%
01:00 +25°C° 0 mm 2 mps 727 mmHg 82%
02:00 +25°C° 0 mm 2 mps 727 mmHg 82%
03:00 +25°C° 0 mm 2 mps 727 mmHg 82%
04:00 +25°C° 0 mm 1 mps 727 mmHg 83%
05:00 +25°C° 0 mm 1 mps 727 mmHg 83%
06:00 +26°C° 0 mm 1 mps 728 mmHg 80%
07:00 +27°C° 0 mm 1 mps 728 mmHg 77%
08:00 +28°C° 0 mm 2 mps 729 mmHg 74%
09:00 +30°C° 0 mm 2 mps 729 mmHg 69%
10:00 +31°C° 0 mm 2 mps 729 mmHg 64%
11:00 +32°C° 0 mm 2 mps 729 mmHg 59%
12:00 +34°C° 0 mm 2 mps 728 mmHg 57%
13:00 +34°C° 0 mm 2 mps 727 mmHg 55%
14:00 +35°C° 0 mm 2 mps 726 mmHg 52%
15:00 +34°C° 0 mm 2 mps 726 mmHg 57%
16:00 +32°C° 0 mm 2 mps 727 mmHg 62%
17:00 +31°C° 0 mm 2 mps 727 mmHg 67%
18:00 +30°C° 0.1 mm 2 mps 727 mmHg 71%
19:00 +28°C° 0.1 mm 2 mps 727 mmHg 75%
20:00 +27°C° 0.1 mm 2 mps 728 mmHg 78%
21:00 +27°C° 0.1 mm 2 mps 728 mmHg 79%
22:00 +26°C° 0.1 mm 2 mps 728 mmHg 80%
23:00 +26°C° 0.1 mm 2 mps 728 mmHg 80%
Show more